Weather in Volchenskiy

Russia / Rostov Oblast     48°13′39″N   40°07′12″E
temp.,
°C
wind,
m/s
gust,
m/s
humid.,
%
clouds,
%
prec.,
mm/h
press.,
hPa
HPBL,
m
25 february, thu
thu2500:00−12s367992 0.0 1039236
03:00−13s377792 0.0 1038247
06:00−12ssw367499 0.0 1036226
09:00−10ssw586796 0.0 1035274
12:00−7sw696399 0.0 1033381
15:00−4wsw6966100 0.0 1031457
18:00−4wsw51174100 0.0 1029331
21:00−2sw81481100 0.0 1027293
26 february, fri
fri2600:000wsw81589100 0.2 1025411
03:00+1w71493100 0.5 1024403
06:00+2w61295100 0.3 1023341
09:00+2w51197100 0.3 1023294
12:00+3w48100100 0.2 1022216
15:00+3w51098100 0.2 1021295
18:00+3wsw4996100 0.0 1019251
21:00+3wsw5129584 0.0 1019357
27 february, sat
sat2700:00+3w61196100 0.0 1017388
03:00+2wsw61197100 0.0 1015372
06:00+3w51095100 0.0 1014350
09:00+3wsw41194100 0.1 1013417
12:00+3wsw61097100 1.8 1011491
15:00+4w51088100 1.8 1010591
18:00+2w41087100 0.1 1010330
21:000w489382 0.1 1011233
28 february, sun
sun2800:00+1w499469 0.1 1010411
03:00+1w5109684 0.1 1011385
06:000wnw5896100 0.0 1011498
09:00+1nw6990100 0.3 1013689
12:000nnw6881100 0.2 1014722
15:00−1nnw6871100 0.2 10161028
18:00−3nnw5873100 0.0 1017920
21:00−4nnw487597 0.0 1020863
1 march, mon
mon100:00−4nnw577483 0.0 1022763
03:00−5nnw477392 0.0 1023741
06:00−5nnw4774100 0.0 1025665
09:00−5nnw4671100 0.0 1026680
12:00−2nnw565878 0.0 1028814
15:00−1nnw565764 0.0 1028887
18:00−3nnw36675 0.0 1029416
21:00−3n36722 0.0 1031556